TimeMST,TemperatureF,Dew PointF,Humidity,Sea Level PressureIn,VisibilityMPH,Wind Direction,Wind SpeedMPH,Gust SpeedMPH,PrecipitationIn,Events,Conditions,WindDirDegrees,DateUTC
5:00 AM,29,16,46,30.06,15,ENE,3.5,,,,Scattered Clouds,70,2013-03-01 12:00:00
6:00 AM,23.0,15.8,74,30.09,15.0,South,8.1,-,N/A,,Partly Cloudy,190,2013-03-01 13:00:00
7:00 AM,26.6,15.8,64,30.11,30.0,East,4.6,-,N/A,,Partly Cloudy,90,2013-03-01 14:00:00
8:00 AM,28.4,19.4,69,30.10,30.0,South,3.5,-,N/A,,Mostly Cloudy,180,2013-03-01 15:00:00
9:00 AM,35.6,24.8,65,30.08,30.0,Calm,Calm,-,N/A,,Mostly Cloudy,0,2013-03-01 16:00:00
10:00 AM,44.6,24.8,46,30.06,30.0,South,4.6,-,N/A,,Mostly Cloudy,190,2013-03-01 17:00:00
11:00 AM,47,25,29,30.04,28,SSE,6.9,,,,Scattered Clouds,150,2013-03-01 18:00:00
11:00 AM,48.2,24.8,40,30.04,30.0,SSE,6.9,-,N/A,,Mostly Cloudy,150,2013-03-01 18:00:00
12:00 PM,51.8,26.6,38,30.02,30.0,SE,6.9,-,N/A,,Mostly Cloudy,130,2013-03-01 19:00:00
1:00 PM,51.8,26.6,38,30.03,30.0,WNW,18.4,-,N/A,,Mostly Cloudy,300,2013-03-01 20:00:00
2:00 PM,55.4,28.4,36,30.03,20.0,NW,17.3,24.2,N/A,,Mostly Cloudy,310,2013-03-01 21:00:00
3:00 PM,53.6,28.4,38,30.03,25.0,WNW,11.5,-,N/A,,Mostly Cloudy,300,2013-03-01 22:00:00
4:00 PM,53.6,28.4,38,30.04,20.0,WNW,12.7,21.9,N/A,,Mostly Cloudy,290,2013-03-01 23:00:00
5:00 PM,51,29,30,30.06,25,WNW,10.4,,,,Scattered Clouds,300,2013-03-02 00:00:00
5:00 PM,50.0,28.4,43,30.06,25.0,NW,9.2,-,N/A,,Scattered Clouds,310,2013-03-02 00:00:00
6:00 PM,39.2,26.6,61,30.13,20.0,South,8.1,-,N/A,,Mostly Cloudy,170,2013-03-02 01:00:00
6:32 PM,35.6,26.6,70,30.14,20.0,East,11.5,-,N/A,,Scattered Clouds,100,2013-03-02 01:32:00
7:00 PM,30.2,24.8,80,30.14,15.0,East,6.9,-,N/A,,Scattered Clouds,90,2013-03-02 02:00:00
8:00 PM,30.2,23.0,75,30.16,15.0,NE,4.6,-,N/A,,Clear,50,2013-03-02 03:00:00
9:00 PM,26.6,23.0,86,30.15,15.0,North,3.5,-,N/A,,Clear,360,2013-03-02 04:00:00
10:00 PM,23.0,21.2,93,30.15,15.0,NNW,5.8,-,N/A,,Clear,330,2013-03-02 05:00:00